Weather History for Dublin, GA

Change the Weather History Date:

Wednesday, December 26, 2012

  Actual Average Record
Temperature  
Mean Temperature 52 °F -  
Max Temperature 62 °F 55 °F 79 °F (1982)
Min Temperature 41 °F 33 °F 6 °F (1983)
Degree Days  
Heating Degree Days 14    
Growing Degree Days 2 (Base 50)    
Moisture  
Dew Point 43 °F    
Average Humidity 76    
Maximum Humidity 100    
Minimum Humidity 54    
Precipitation  
Precipitation 0.00 in - - ()
Sea Level Pressure  
Sea Level Pressure 29.77 in    
Wind  
Wind Speed 13 mph (WSW)    
Max Wind Speed 24 mph    
Max Gust Speed 36 mph    
Visibility 9 miles    
Events Rain , Thunderstorm    
Averages and records for this station are not official NWS values.
T = Trace of Precipitation, MM = Missing Value Source: NWS Daily Summary

Daily Weather History Graph

Daily Weather History Graph

Search for Another Location

Airport:

Trip Planner

Search our weather history database for the weather conditions in past years. The results will help you decide how hot, cold, wet, or windy it might be!

Date:

Astronomy

Dec. 26, 2012 Rise Set
Actual Time 7:32 AM EST 5:33 PM EST
Civil Twilight 7:05 AM EST 6:00 PM EST
Nautical Twilight 6:34 AM EST 6:31 PM EST
Astronomical Twilight 6:04 AM EST 7:01 PM EST
Moon 4:24 PM EST (12/26) 5:56 AM EST (12/26)
Length of Visible Light 10h 55m
Length of Day
10h 01m
Waxing Gibbous, 97% of the Moon is Illuminated
Dec 26
Waxing Gibbous
Dec 28
Full
Jan 4
Last Quarter
Jan 11
New
Jan 18
First Quarter

Hourly Weather History & Observations

Time (EST) Temp. Windchill Dew Point Humidity Pressure Visibility Wind Dir Wind Speed Gust Speed Precip Events Conditions
12:15 AM 55.4 °F - 55.4 °F 100% 29.81 in 1.0 mi SE 9.2 mph 19.6 mph N/A   Overcast
12:35 AM 55.4 °F - 55.4 °F 100% 29.80 in 1.2 mi SE 12.7 mph 17.3 mph N/A   Overcast
12:55 AM 57.2 °F - 57.2 °F 100% 29.80 in 4.0 mi SE 11.5 mph 16.1 mph N/A   Overcast
1:15 AM 59.0 °F - 59.0 °F 100% 29.80 in 5.0 mi SE 9.2 mph 16.1 mph N/A Rain Light Rain
1:35 AM 59.0 °F - 59.0 °F 100% 29.76 in 7.0 mi SE 11.5 mph - N/A Rain Light Rain
1:55 AM 59.0 °F - 59.0 °F 100% 29.74 in 7.0 mi SE 13.8 mph - N/A   Overcast
2:15 AM 59.0 °F - 59.0 °F 100% 29.74 in 10.0 mi SSE 9.2 mph 17.3 mph N/A Rain Light Rain
2:35 AM 60.8 °F - 60.8 °F 100% 29.71 in 10.0 mi SE 10.4 mph - N/A Rain Light Rain
2:55 AM 60.8 °F - 60.8 °F 100% 29.71 in 10.0 mi SSE 11.5 mph - N/A Rain Light Rain
3:15 AM 60.8 °F - 60.8 °F 100% 29.68 in 10.0 mi SSE 15.0 mph - N/A Rain Light Rain
3:35 AM 60.8 °F - 60.8 °F 100% 29.67 in 10.0 mi South 11.5 mph 19.6 mph N/A Rain Light Rain
4:15 AM 62.6 °F - 62.6 °F 100% 29.64 in 10.0 mi SSE 9.2 mph - N/A Rain Light Rain
4:35 AM 62.6 °F - 62.6 °F 100% 29.63 in 10.0 mi South 16.1 mph 21.9 mph N/A Rain Rain
4:55 AM 62.6 °F - 62.6 °F 100% 29.61 in 10.0 mi South 15.0 mph 20.7 mph N/A Rain Rain
5:15 AM 62.6 °F - 62.6 °F 100% 29.60 in 10.0 mi South 10.4 mph 20.7 mph N/A Rain Rain
5:35 AM 62.6 °F - 62.6 °F 100% 29.61 in 7.0 mi SW 13.8 mph 18.4 mph N/A Rain Rain
5:55 AM 62.6 °F - 62.6 °F 100% 29.62 in 5.0 mi WSW 9.2 mph - N/A Rain , Thunderstorm Heavy Thunderstorms and Rain
6:15 AM 60.8 °F - 60.8 °F 100% 29.64 in 4.0 mi WSW 10.4 mph 19.6 mph N/A Rain , Thunderstorm Heavy Thunderstorms and Rain
6:35 AM 59.0 °F - 59.0 °F 100% 29.62 in 10.0 mi SSW 9.2 mph - N/A Thunderstorm Thunderstorm
6:55 AM 55.4 °F - 55.4 °F 100% 29.62 in 10.0 mi South 5.8 mph - N/A   Mostly Cloudy
7:15 AM 55.4 °F - 55.4 °F 100% 29.63 in 10.0 mi SSW 6.9 mph - N/A   Mostly Cloudy
7:35 AM 55.4 °F - 55.4 °F 100% 29.63 in 10.0 mi SSW 6.9 mph - N/A   Mostly Cloudy
7:55 AM 55.4 °F - 55.4 °F 100% 29.62 in 10.0 mi SSW 8.1 mph - N/A   Scattered Clouds
8:15 AM 55.4 °F - 53.6 °F 94% 29.62 in 10.0 mi SW 9.2 mph - N/A   Clear
8:35 AM 57.2 °F - 48.2 °F 72% 29.63 in 10.0 mi WSW 12.7 mph 18.4 mph N/A   Clear
8:55 AM 57.2 °F - 46.4 °F 67% 29.64 in 10.0 mi WSW 15.0 mph 27.6 mph N/A   Clear
9:15 AM 57.2 °F - 46.4 °F 67% 29.65 in 10.0 mi WSW 15.0 mph 28.8 mph N/A   Scattered Clouds
9:35 AM 57.2 °F - 46.4 °F 67% 29.66 in 10.0 mi West 18.4 mph 24.2 mph N/A   Mostly Cloudy
9:55 AM 55.4 °F - 44.6 °F 67% 29.67 in 10.0 mi WSW 16.1 mph 26.5 mph N/A   Overcast
10:15 AM 55.4 °F - 44.6 °F 67% 29.68 in 10.0 mi WSW 17.3 mph 26.5 mph N/A   Overcast
10:35 AM 57.2 °F - 42.8 °F 59% 29.68 in 10.0 mi WSW 18.4 mph 35.7 mph N/A   Mostly Cloudy
10:55 AM 59.0 °F - 42.8 °F 55% 29.69 in 10.0 mi West 18.4 mph 26.5 mph N/A   Scattered Clouds
11:15 AM 57.2 °F - 41.0 °F 55% 29.68 in 10.0 mi WSW 18.4 mph 34.5 mph N/A   Mostly Cloudy
11:35 AM 57.2 °F - 41.0 °F 55% 29.69 in 10.0 mi WSW 16.1 mph 27.6 mph N/A   Mostly Cloudy
11:55 AM 55.4 °F - 42.8 °F 63% 29.69 in 10.0 mi West 18.4 mph 27.6 mph N/A   Overcast
12:15 PM 55.4 °F - 41.0 °F 58% 29.69 in 10.0 mi West 24.2 mph 32.2 mph N/A   Overcast
12:35 PM 51.8 °F - 37.4 °F 58% 29.70 in 10.0 mi West 21.9 mph 33.4 mph N/A   Mostly Cloudy
12:55 PM 51.8 °F - 35.6 °F 54% 29.72 in 10.0 mi West 20.7 mph 35.7 mph N/A   Mostly Cloudy
1:15 PM 50.0 °F - 33.8 °F 54% 29.74 in 10.0 mi WNW 19.6 mph 28.8 mph N/A   Scattered Clouds
1:35 PM 46.4 °F 38.5 °F 32.0 °F 57% 29.75 in 10.0 mi WNW 21.9 mph 33.4 mph N/A   Overcast
1:55 PM 46.4 °F 38.3 °F 32.0 °F 57% 29.76 in 10.0 mi WNW 23.0 mph 31.1 mph N/A   Overcast
2:15 PM 44.6 °F 37.4 °F 32.0 °F 61% 29.76 in 10.0 mi West 16.1 mph 27.6 mph N/A   Overcast
2:35 PM 44.6 °F 36.6 °F 32.0 °F 61% 29.76 in 10.0 mi West 19.6 mph 25.3 mph N/A   Overcast
2:55 PM 44.6 °F 36.4 °F 32.0 °F 61% 29.77 in 10.0 mi West 20.7 mph 29.9 mph N/A   Overcast
3:15 PM 44.6 °F 38.1 °F 32.0 °F 61% 29.78 in 10.0 mi WNW 13.8 mph 27.6 mph N/A   Overcast
3:35 PM 44.6 °F 36.6 °F 32.0 °F 61% 29.78 in 10.0 mi West 19.6 mph 28.8 mph N/A   Overcast
3:55 PM 44.6 °F 37.2 °F 32.0 °F 61% 29.80 in 10.0 mi West 17.3 mph 28.8 mph N/A   Overcast
4:15 PM 44.6 °F 36.6 °F 32.0 °F 61% 29.81 in 10.0 mi WNW 19.6 mph 26.5 mph N/A   Overcast
4:35 PM 44.6 °F 37.8 °F 32.0 °F 61% 29.82 in 10.0 mi West 15.0 mph 32.2 mph N/A   Overcast
4:55 PM 42.8 °F 34.8 °F 32.0 °F 66% 29.83 in 10.0 mi WNW 17.3 mph 29.9 mph N/A   Overcast
5:15 PM 42.8 °F 36.2 °F 32.0 °F 66% 29.85 in 10.0 mi WNW 12.7 mph 28.8 mph N/A   Overcast
5:35 PM 42.8 °F 34.8 °F 32.0 °F 66% 29.85 in 10.0 mi WNW 17.3 mph 29.9 mph N/A   Overcast
5:55 PM 42.8 °F 35.8 °F 32.0 °F 66% 29.86 in 10.0 mi WNW 13.8 mph 25.3 mph N/A   Overcast
6:15 PM 42.8 °F 34.5 °F 32.0 °F 66% 29.88 in 10.0 mi WNW 18.4 mph 23.0 mph N/A   Overcast
6:35 PM 41.0 °F 32.5 °F 32.0 °F 70% 29.89 in 10.0 mi WNW 17.3 mph 25.3 mph N/A   Overcast
6:55 PM 41.0 °F 31.6 °F 32.0 °F 70% 29.90 in 10.0 mi West 20.7 mph 27.6 mph N/A   Overcast
7:15 PM 41.0 °F 32.8 °F 32.0 °F 70% 29.91 in 10.0 mi WNW 16.1 mph 20.7 mph N/A   Overcast
7:55 PM 41.0 °F 33.1 °F 30.2 °F 65% 29.92 in 10.0 mi WNW 15.0 mph 28.8 mph N/A   Overcast
8:15 PM 41.0 °F 32.8 °F 30.2 °F 65% 29.93 in 10.0 mi WNW 16.1 mph 25.3 mph N/A   Overcast
8:35 PM 41.0 °F 33.5 °F 30.2 °F 65% 29.94 in 10.0 mi WNW 13.8 mph 27.6 mph N/A   Overcast
8:55 PM 41.0 °F 33.1 °F 30.2 °F 65% 29.95 in 10.0 mi NW 15.0 mph 20.7 mph N/A   Overcast
9:15 PM 41.0 °F 34.3 °F 32.0 °F 70% 29.95 in 10.0 mi WNW 11.5 mph 19.6 mph N/A   Overcast
9:35 PM 41.0 °F 34.7 °F 32.0 °F 70% 29.96 in 10.0 mi WNW 10.4 mph 26.5 mph N/A   Overcast
9:55 PM 41.0 °F 34.3 °F 32.0 °F 70% 29.97 in 10.0 mi WNW 11.5 mph 18.4 mph N/A   Overcast
10:15 PM 41.0 °F 33.1 °F 32.0 °F 70% 29.97 in 10.0 mi WNW 15.0 mph 26.5 mph N/A   Overcast
10:35 PM 41.0 °F 33.5 °F 32.0 °F 70% 29.98 in 10.0 mi WNW 13.8 mph 21.9 mph N/A   Overcast
10:55 PM 41.0 °F 35.2 °F 32.0 °F 70% 29.99 in 10.0 mi WNW 9.2 mph 21.9 mph N/A   Overcast
11:15 PM 41.0 °F 34.7 °F 32.0 °F 70% 29.98 in 10.0 mi NNW 10.4 mph 18.4 mph N/A   Overcast
11:35 PM 41.0 °F 33.5 °F 32.0 °F 70% 29.99 in 10.0 mi NW 13.8 mph 19.6 mph N/A   Overcast
11:55 PM 41.0 °F 33.9 °F 32.0 °F 70% 29.98 in 10.0 mi NW 12.7 mph 19.6 mph N/A   Overcast